| time (UTC) | temp F | wind direction | speed MPH | gust MPH | rain 1hr in | rain 24hr in | rain mn in | humidity % | barometer mb |
| 20260904203100 | 60 | 152 | 1.0 | 5.0 | 0.00 | 0.00 | 0.00 | 54 | 1023.3 |
| 20260904201613 | 59 | 131 | 1.0 | 8.0 | 0.00 | 0.00 | 0.00 | 57 | 1023.5 |
| 20260904200052 | 58 | 278 | 1.0 | 5.0 | 0.00 | 0.00 | 0.00 | 58 | 1023.7 |
| 20260904194647 | 56 | 107 | 0.0 | 4.0 | 0.00 | 0.00 | 0.00 | 62 | 1023.7 |
| 20260904193102 | 56 | 79 | 0.0 | 3.0 | 0.00 | 0.00 | 0.00 | 62 | 1023.7 |
| 20260904191549 | 55 | 131 | 2.0 | 5.0 | 0.00 | 0.00 | 0.00 | 63 | 1023.7 |
| 20260904190046 | 54 | 295 | 3.0 | 5.0 | 0.00 | 0.00 | 0.00 | 63 | 1023.7 |
| 20260904184557 | 52 | 134 | 0.0 | 3.0 | 0.00 | 0.00 | 0.00 | 68 | 1023.8 |
| 20260904183045 | 50 | 178 | 0.0 | 3.0 | 0.00 | 0.00 | 0.00 | 72 | 1023.8 |
| 20260904181510 | 49 | 201 | 1.0 | 4.0 | 0.00 | 0.00 | 0.00 | 73 | 1023.8 |
| 20260904174548 | 48 | 233 | 0.0 | 3.0 | 0.00 | 0.00 | 0.00 | 76 | 1023.8 |
| 20260904173117 | 48 | 252 | 0.0 | 4.0 | 0.00 | 0.00 | 0.00 | 76 | 1023.8 |
| 20260904171600 | 47 | 134 | 0.0 | 2.0 | 0.00 | 0.00 | 0.00 | 77 | 1023.8 |
| 20260904170059 | 47 | 120 | 0.0 | 1.0 | 0.00 | 0.00 | 0.00 | 78 | 1023.7 |
| 20260904164504 | 44 | 86 | 0.0 | 0.0 | 0.00 | 0.00 | 0.00 | 84 | 1023.9 |
| 20260904163053 | 43 | 92 | 0.0 | 2.0 | 0.00 | 0.00 | 0.00 | 85 | 1023.9 |
| 20260904161551 | 43 | 86 | 0.0 | 1.0 | 0.00 | 0.00 | 0.00 | 84 | 1023.9 |
| 20260904160041 | 43 | 93 | 1.0 | 3.0 | 0.00 | 0.00 | 0.00 | 84 | 1024.2 |
| 20260904154557 | 41 | 82 | 0.0 | 2.0 | 0.00 | 0.00 | 0.00 | 87 | 1024.1 |
| 20260904153056 | 39 | 35 | 0.0 | 0.0 | 0.00 | 0.00 | 0.00 | 88 | 1024.1 |
| 20260904151505 | 38 | 36 | 0.0 | 1.0 | 0.00 | 0.00 | 0.00 | 89 | 1024.1 |
| 20260904150055 | 38 | 34 | 0.0 | 0.0 | 0.00 | 0.00 | 0.00 | 88 | 1024.1 |
| 20260904144554 | 38 | 35 | 0.0 | 0.0 | 0.00 | 0.00 | 0.00 | 87 | 1024.1 |
| 20260904143042 | 39 | 85 | 0.0 | 1.0 | 0.00 | 0.00 | 0.00 | 87 | 1024.3 |
| 20260904141602 | 39 | 243 | 0.0 | 1.0 | 0.00 | 0.00 | 0.00 | 86 | 1024.0 |
| 20260904140052 | 38 | 245 | 0.0 | 0.0 | 0.00 | 0.00 | 0.00 | 85 | 1024.6 |
| 20260904134504 | 39 | 245 | 0.0 | 0.0 | 0.00 | 0.00 | 0.00 | 86 | 1024.4 |
| 20260904133055 | 38 | 245 | 0.0 | 0.0 | 0.00 | 0.00 | 0.00 | 85 | 1024.2 |
| 20260904131552 | 39 | 245 | 0.0 | 1.0 | 0.00 | 0.00 | 0.00 | 85 | 1024.1 |
| 20260904130057 | 39 | 244 | 0.0 | 0.0 | 0.00 | 0.00 | 0.00 | 85 | 1024.0 |
| 20260904124658 | 39 | 244 | 0.0 | 1.0 | 0.00 | 0.00 | 0.00 | 86 | 1024.0 |
| 20260904123049 | 39 | 244 | 0.0 | 0.0 | 0.00 | 0.00 | 0.00 | 85 | 1024.0 |
| 20260904121502 | 39 | 245 | 0.0 | 0.0 | 0.00 | 0.00 | 0.00 | 84 | 1023.7 |
| 20260904120057 | 39 | 245 | 0.0 | 0.0 | 0.00 | 0.00 | 0.00 | 84 | 1023.5 |
| 20260904114549 | 39 | 245 | 0.0 | 0.0 | 0.00 | 0.00 | 0.00 | 84 | 1023.4 |
| 20260904113101 | 39 | 245 | 0.0 | 0.0 | 0.00 | 0.00 | 0.00 | 83 | 1023.6 |
| 20260904111610 | 40 | 245 | 0.0 | 0.0 | 0.00 | 0.00 | 0.00 | 85 | 1023.6 |
| 20260904110047 | 40 | 245 | 0.0 | 0.0 | 0.00 | 0.00 | 0.00 | 82 | 1023.7 |
| 20260904104501 | 40 | 245 | 0.0 | 1.0 | 0.00 | 0.00 | 0.00 | 82 | 1023.6 |
| 20260904103055 | 41 | 215 | 0.0 | 0.0 | 0.00 | 0.00 | 0.00 | 82 | 1023.7 |
| 20260904101552 | 41 | 316 | 0.0 | 0.0 | 0.00 | 0.00 | 0.00 | 81 | 1023.8 |
| 20260904100045 | 41 | 322 | 0.0 | 1.0 | 0.00 | 0.00 | 0.00 | 80 | 1023.8 |
| 20260904094611 | 41 | 322 | 0.0 | 2.0 | 0.00 | 0.00 | 0.00 | 81 | 1023.8 |
| 20260904093051 | 41 | 234 | 0.0 | 0.0 | 0.00 | 0.00 | 0.00 | 79 | 1023.7 |
| 20260904091505 | 42 | 234 | 0.0 | 1.0 | 0.00 | 0.00 | 0.00 | 78 | 1023.7 |
| 20260904090055 | 43 | 233 | 0.0 | 1.0 | 0.00 | 0.00 | 0.00 | 78 | 1023.6 |
| 20260904084549 | 43 | 281 | 0.0 | 0.0 | 0.00 | 0.00 | 0.00 | 77 | 1023.8 |
| 20260904083003 | 44 | 234 | 0.0 | 1.0 | 0.00 | 0.00 | 0.00 | 75 | 1023.7 |
| 20260904081636 | 44 | 245 | 2.0 | 4.0 | 0.00 | 0.00 | 0.00 | 76 | 1023.4 |
| 20260904080043 | 44 | 251 | 0.0 | 0.0 | 0.00 | 0.00 | 0.00 | 75 | 1023.6 |
| 20260904074501 | 45 | 251 | 0.0 | 0.0 | 0.00 | 0.00 | 0.00 | 72 | 1023.6 |
| 20260904073104 | 45 | 250 | 0.0 | 1.0 | 0.00 | 0.00 | 0.00 | 73 | 1023.8 |
| 20260904071547 | 45 | 346 | 0.0 | 1.0 | 0.00 | 0.00 | 0.00 | 73 | 1023.8 |
| 20260904070109 | 46 | 346 | 0.0 | 0.0 | 0.00 | 0.00 | 0.00 | 73 | 1023.7 |
| 20260904064551 | 46 | 345 | 0.0 | 0.0 | 0.00 | 0.00 | 0.00 | 70 | 1023.9 |
| 20260904063054 | 46 | 345 | 1.0 | 3.0 | 0.00 | 0.00 | 0.00 | 70 | 1023.9 |
| 20260904061604 | 48 | 3 | 0.0 | 1.0 | 0.00 | 0.00 | 0.00 | 68 | 1023.8 |
| 20260904060048 | 49 | 18 | 0.0 | 0.0 | 0.00 | 0.00 | 0.00 | 64 | 1023.6 |
| 20260904054550 | 50 | 18 | 0.0 | 0.0 | 0.00 | 0.00 | 0.00 | 64 | 1023.7 |
| 20260904053059 | 51 | 16 | 0.0 | 1.0 | 0.00 | 0.00 | 0.00 | 62 | 1023.5 |
| 20260904051555 | 51 | 14 | 0.0 | 2.0 | 0.00 | 0.00 | 0.00 | 62 | 1023.4 |
| 20260904050045 | 50 | 354 | 1.0 | 3.0 | 0.00 | 0.00 | 0.00 | 63 | 1023.4 |
| 20260904044503 | 51 | 162 | 0.0 | 2.0 | 0.00 | 0.00 | 0.00 | 65 | 1023.6 |
| 20260904043058 | 51 | 115 | 0.0 | 1.0 | 0.00 | 0.00 | 0.00 | 66 | 1023.7 |
| 20260904041547 | 52 | 11 | 0.0 | 1.0 | 0.00 | 0.00 | 0.00 | 64 | 1023.6 |
| 20260904040058 | 53 | 13 | 0.0 | 1.0 | 0.00 | 0.00 | 0.00 | 61 | 1023.5 |
| 20260904034554 | 54 | 13 | 0.0 | 0.0 | 0.00 | 0.00 | 0.00 | 61 | 1023.4 |
| 20260904033043 | 55 | 13 | 0.0 | 1.0 | 0.00 | 0.00 | 0.00 | 57 | 1023.5 |
| 20260904031558 | 56 | 96 | 0.0 | 4.0 | 0.00 | 0.00 | 0.00 | 56 | 1023.5 |
| 20260904030053 | 57 | 79 | 1.0 | 3.0 | 0.00 | 0.00 | 0.00 | 54 | 1023.5 |
| 20260904024550 | 57 | 61 | 0.0 | 4.0 | 0.00 | 0.00 | 0.00 | 54 | 1023.6 |
| 20260904023058 | 57 | 62 | 1.0 | 3.0 | 0.00 | 0.00 | 0.00 | 52 | 1023.6 |
| 20260904021557 | 57 | 114 | 0.0 | 4.0 | 0.00 | 0.00 | 0.00 | 52 | 1023.6 |
| 20260904020045 | 57 | 75 | 1.0 | 4.0 | 0.00 | 0.00 | 0.00 | 52 | 1023.7 |
| 20260904014642 | 58 | 89 | 1.0 | 2.0 | 0.00 | 0.00 | 0.00 | 50 | 1023.9 |
| 20260904013056 | 58 | 293 | 0.0 | 5.0 | 0.00 | 0.00 | 0.00 | 48 | 1024.0 |
| 20260904011547 | 59 | 270 | 1.0 | 4.0 | 0.00 | 0.00 | 0.00 | 48 | 1024.1 |
| 20260904010057 | 58 | 257 | 0.0 | 3.0 | 0.00 | 0.00 | 0.00 | 51 | 1024.1 |
| 20260904004553 | 56 | 69 | 0.0 | 2.0 | 0.00 | 0.00 | 0.00 | 51 | 1024.1 |
| 20260904003042 | 56 | 102 | 0.0 | 2.0 | 0.00 | 0.00 | 0.00 | 51 | 1024.3 |
| 20260904001554 | 55 | 248 | 0.0 | 2.0 | 0.00 | 0.00 | 0.00 | 51 | 1024.5 |
| 20260904000137 | 55 | 113 | 1.0 | 3.0 | 0.00 | 0.00 | 0.00 | 50 | 1024.5 |
| 20260903234547 | 56 | 144 | 1.0 | 4.0 | 0.00 | 0.00 | 0.00 | 51 | 1024.3 |
| 20260903233058 | 56 | 72 | 1.0 | 3.0 | 0.00 | 0.00 | 0.00 | 49 | 1024.7 |
| 20260903231601 | 55 | 98 | 1.0 | 3.0 | 0.00 | 0.00 | 0.00 | 50 | 1025.1 |
| 20260903230044 | 55 | 293 | 1.0 | 4.0 | 0.00 | 0.00 | 0.00 | 50 | 1025.4 |
| 20260903224503 | 55 | 198 | 1.0 | 6.0 | 0.00 | 0.00 | 0.00 | 49 | 1025.0 |
| 20260903223050 | 54 | 243 | 3.0 | 6.0 | 0.00 | 0.00 | 0.00 | 50 | 1025.2 |
| 20260903221506 | 54 | 241 | 3.0 | 5.0 | 0.00 | 0.00 | 0.00 | 51 | 1025.3 |
| 20260903220113 | 53 | 231 | 1.0 | 5.0 | 0.00 | 0.00 | 0.00 | 50 | 1025.1 |
| 20260903214558 | 53 | 259 | 2.0 | 7.0 | 0.00 | 0.00 | 0.00 | 49 | 1025.5 |
| 20260903213049 | 52 | 228 | 1.0 | 4.0 | 0.00 | 0.00 | 0.00 | 48 | 1025.2 |
| 20260903211501 | 52 | 260 | 2.0 | 6.0 | 0.00 | 0.00 | 0.00 | 52 | 1025.6 |
| 20260903210054 | 53 | 258 | 1.0 | 4.0 | 0.00 | 0.00 | 0.00 | 55 | 1025.5 |
| 20260903204551 | 52 | 264 | 3.0 | 6.0 | 0.00 | 0.00 | 0.00 | 54 | 1025.7 |